Regional Weather Roundup
Issued by NWS Sioux Falls, SD

Home | Current Version | Previous Version | Graphics & Text | Print | Product List | Glossary Off
Versions: 1 2 3 4 5 6 7 8 9 10 11 12 13 14 15 16 17 18 19 20 21 22 23 24 25 26 27 28 29 30 31 32 33 34 35 36 37 38 39 40 41 42 43 44 45 46 47 48 49 50

000
ASUS43 KFSD 061010
RWRFSD

WEATHER ROUNDUP FOR SE SOUTH DAKOTA/SW MINNESOTA/NW IOWA
NATIONAL WEATHER SERVICE SIOUX FALLS SD
400 AM CST FRI MAR 06 2015

NOTE: "FAIR" INDICATES FEW OR NO CLOUDS BELOW 12,000 FEET WITH NO
SIGNIFICANT WEATHER AND OR OBSTRUCTIONS TO VISIBILITY.


SDZ038>040-050-052>070-061100-
SOUTHEAST SOUTH DAKOTA

CITY           SKY/WX    TMP DP  RH WIND       PRES   REMARKS
CHAMBERLAIN    CLOUDY    26  19  73 CALM      30.10F
HURON          CLOUDY    17   9  70 S6        30.06F WCI   9
MADISON        FAIR      19  10  68 SW10      30.06S WCI   8
MITCHELL       PTCLDY    24  16  71 W9        30.10F WCI  14
SIOUX FALLS    PTCLDY    21   8  57 SW3       30.09F
WINNER         FAIR      32  17  54 SW9       30.11F WCI  24
YANKTON        PTCLDY    27   9  46 CALM      30.13S
$$

MNZ071-072-080-081-089-090-097-098-061100-
SOUTHWEST MINNESOTA

CITY           SKY/WX    TMP DP  RH WIND       PRES   REMARKS
FAIRMONT       CLEAR     16   5  62 S15       30.11F WCI   1
JACKSON        CLEAR     16   9  73 S15       30.10F WCI   1
LUVERNE        PTCLDY    14   9  79 CALM      30.10F
MARSHALL       PTCLDY    23   9  54 SW20G28   30.04F WCI   8
MONTEVIDEO     MOCLDY    16  10  79 W6        30.05F WCI   7
PIPESTONE      FAIR      18  10  73 SW7       30.06F WCI   8
REDWOOD FALLS  FAIR      17   9  70 S6        30.07F WCI   9
TRACY          PTCLDY    21  11  65 SW22      30.04F WCI   5
WINDOM         CLEAR     16   9  73 S13       30.08F WCI   2
WORTHINGTON    CLEAR     16   9  73 SW14      30.10F WCI   1
$$

IAZ001>003-012>014-020>022-031-032-NEZ013-014-SDZ071-061100-
NORTHWEST IOWA

CITY           SKY/WX    TMP DP  RH WIND       PRES   REMARKS
CHEROKEE       CLEAR     19  10  68 S9        30.14F WCI   7
DENISON        CLEAR     21  12  68 S9G16     30.15F WCI  11
ESTHERVILLE    CLEAR     11   5  77 S12       30.12F WCI  -3
LE MARS        CLEAR     21  12  68 S9        30.14F WCI  11
ORANGE CITY    CLEAR     18  10  73 S8        30.11F WCI   7
SHELDON        CLEAR     18   9  68 S8        30.10F WCI   7
SIOUX CITY     CLEAR     18   9  68 SE7       30.15F WCI   9
SPENCER        CLEAR     15   6  67 S7        30.13F WCI   5
STORM LAKE     CLEAR     21  12  68 SW18      30.13F WCI   6
$$

ABBREVIATIONS USED IN REMARKS
   TC - TEMPERATURE IN CELSIUS
  WCI - WIND CHILL INDEX
   HX - HEAT INDEX
  VSB - VISIBILITY



USA.gov is the U.S. government's official web portal to all federal, state and local government web resources and services.